FW2780 Weather Reports


time (UTC)temp
C
wind
direction
speed
KPH
gust
KPH
rain 1hr
cm
rain 24hr
cm
rain mn
cm
humidity
%
barometer
mb
20260508023015 8 300 3.2 6.4 0.05 2.11 2.11 95 1002.9
20260508021514 8 301 0.0 1.6 0.05 2.11 2.11 95 1002.8
20260508020014 8 301 0.0 0.0 0.05 2.11 2.11 95 1003.5
20260508014513 8 301 0.0 1.6 0.05 2.11 2.11 94 1003.6
20260508013012 8 301 0.0 1.6 0.05 2.08 2.08 95 1003.3
20260508011512 8 301 0.0 1.6 0.05 2.06 2.06 95 1003.2
20260508010021 8 301 0.0 1.6 0.10 2.06 2.06 94 1003.3
20260508004516 8 301 0.0 0.0 0.10 2.03 2.03 94 1003.4
20260508003009 8 301 0.0 3.2 0.10 2.03 2.03 94 1003.5
20260508001509 8 300 4.8 12.9 0.08 2.01 2.01 93 1003.2
20260508000122 8 300 4.8 12.9 0.05 1.96 1.96 93 1003.3
20260507234508 9 243 0.0 11.3 0.03 1.93 1.93 93 1002.8
20260507233003 8 260 4.8 14.5 0.00 1.93 1.93 92 1002.7
20260507231502 8 277 9.7 29.0 0.00 1.93 1.93 91 1002.5
20260507230104 9 60 19.3 40.2 0.00 1.93 1.93 85 1002.3
20260507224559 12 172 6.4 16.1 0.00 1.93 1.93 90 1001.6
20260507223103 12 178 6.4 19.3 0.00 1.93 1.93 90 1001.6
20260507221602 12 181 8.0 17.7 0.00 1.93 1.93 90 1001.6
20260507220057 12 172 6.4 19.3 0.00 1.93 1.93 90 1001.5
20260507214556 12 184 6.4 24.1 0.00 1.93 1.93 90 1001.5
20260507213056 12 183 6.4 19.3 0.00 1.93 1.93 91 1001.4
20260507211601 12 183 6.4 22.5 0.03 1.93 1.93 91 1001.4
20260507210054 12 161 9.7 22.5 0.05 1.93 1.93 92 1001.4
20260507204555 12 137 4.8 24.1 0.18 1.93 1.93 92 1001.5
20260507203053 12 103 11.3 25.7 0.30 1.93 1.93 92 1000.7
20260507201552 12 129 12.9 29.0 0.41 1.91 1.91 93 1000.4
20260507200047 12 167 9.7 32.2 0.43 1.85 1.85 92 1001.2
20260507194544 12 159 11.3 25.7 0.43 1.75 1.75 92 1002.0
20260507193046 12 101 8.0 19.3 0.46 1.63 1.63 92 1003.1
20260507191538 12 183 9.7 24.1 0.51 1.50 1.50 92 1003.2
20260507190038 12 160 8.0 22.5 0.61 1.40 1.40 91 1003.3
20260507184533 13 212 11.3 20.9 0.94 1.30 1.30 91 1003.5
20260507183030 13 113 8.0 27.4 1.04 1.17 1.17 91 1003.7
20260507181528 13 196 8.0 16.1 0.97 0.99 0.99 90 1004.0
20260507180025 13 271 1.6 4.8 0.79 0.79 0.79 89 1004.3
20260507174542 14 185 3.2 12.9 0.33 0.33 0.33 88 1004.0
20260507173025 15 235 9.7 27.4 0.13 0.13 0.13 86 1003.5
20260507171522 15 283 4.8 30.6 0.00 0.00 0.00 83 1003.4
20260507170024 16 90 4.8 33.8 0.00 0.00 0.00 79 1002.9
20260507164521 17 227 8.0 35.4 0.00 0.00 0.00 75 1002.9
20260507163022 16 204 12.9 43.5 0.00 0.00 0.00 76 1002.7
20260507161520 16 117 12.9 37.0 0.00 0.00 0.00 75 1003.3
20260507160016 17 360 9.7 33.8 0.00 0.00 0.00 73 1003.3
20260507154518 18 211 12.9 32.2 0.00 0.00 0.00 70 1003.6
20260507153017 17 176 14.5 45.1 0.00 0.00 0.00 72 1004.2
20260507151510 17 60 16.1 41.8 0.00 0.00 0.00 73 1004.5
20260507150009 17 152 24.1 51.5 0.00 0.00 0.00 73 1004.7
20260507144508 17 227 14.5 56.3 0.00 0.00 0.00 73 1004.7
20260507143007 17 131 9.7 33.8 0.00 0.00 0.00 73 1005.0
20260507141505 17 76 17.7 51.5 0.00 0.00 0.00 74 1005.0
20260507140008 17 319 12.9 30.6 0.00 0.00 0.00 73 1005.8
20260507134503 17 196 14.5 45.1 0.00 0.00 0.00 74 1005.5
20260507133002 17 249 12.9 56.3 0.00 0.00 0.00 75 1006.0
20260507131622 17 130 14.5 56.3 0.00 0.00 0.00 74 1005.5
20260507130108 17 92 16.1 41.8 0.00 0.00 0.00 74 1005.7
20260507124602 17 143 12.9 37.0 0.00 0.00 0.00 74 1006.0
20260507123101 16 219 14.5 38.6 0.00 0.00 0.00 76 1006.4
20260507121550 16 175 11.3 51.5 0.00 0.00 0.00 77 1006.8
20260507120047 15 78 11.3 32.2 0.00 0.00 0.00 79 1007.3
20260507114547 15 190 11.3 30.6 0.00 0.00 0.00 79 1007.8
20260507113106 15 201 9.7 27.4 0.00 0.00 0.00 79 1008.2
20260507111545 15 154 9.7 29.0 0.00 0.00 0.00 82 1008.2
20260507110043 14 140 6.4 17.7 0.00 0.00 0.00 82 1008.5
20260507104546 14 161 16.1 33.8 0.00 0.00 0.00 82 1007.7
20260507103037 14 156 8.0 30.6 0.00 0.00 0.00 82 1008.5
20260507101536 14 161 14.5 32.2 0.00 0.00 0.00 83 1009.2
20260507100043 14 77 16.1 37.0 0.00 0.00 0.00 83 1008.9
20260507094529 14 106 11.3 37.0 0.00 0.00 0.00 82 1009.5
20260507093031 14 95 6.4 30.6 0.00 0.00 0.00 83 1009.9
20260507091524 14 83 12.9 30.6 0.00 0.00 0.00 83 1010.2
20260507090022 14 148 14.5 32.2 0.00 0.00 0.00 83 1009.9
20260507084542 14 150 4.8 19.3 0.00 0.00 0.00 82 1010.7
20260507083024 14 142 14.5 27.4 0.00 0.00 0.00 82 1010.0
20260507081516 14 100 12.9 30.6 0.00 0.00 0.00 82 1010.4
20260507080015 14 100 4.8 20.9 0.00 0.00 0.00 81 1010.9
20260507074511 14 188 3.2 14.5 0.00 0.00 0.00 80 1011.1
20260507073009 14 184 1.6 19.3 0.00 0.00 0.00 79 1011.7
20260507071514 15 89 8.0 25.7 0.00 0.00 0.00 78 1011.3
20260507070015 15 92 8.0 19.3 0.00 0.00 0.00 78 1011.7
20260507064505 15 142 11.3 30.6 0.00 0.00 0.00 77 1011.4
20260507063001 15 150 9.7 22.5 0.00 0.00 0.00 76 1011.8
20260507061557 15 122 8.0 19.3 0.00 0.00 0.00 73 1012.0
20260507060055 15 170 6.4 19.3 0.00 0.00 0.00 70 1012.0
20260507054553 15 152 6.4 20.9 0.00 0.00 0.00 68 1012.6
20260507053049 15 179 3.2 14.5 0.00 0.00 0.00 69 1012.8
20260507051547 15 156 8.0 16.1 0.00 0.00 0.00 70 1013.3
20260507044550 16 153 6.4 16.1 0.00 0.00 0.00 65 1013.8
20260507043038 16 163 6.4 22.5 0.00 0.00 0.00 65 1013.9
20260507041535 16 291 3.2 33.8 0.00 0.00 0.00 67 1014.4
20260507040033 16 223 8.0 22.5 0.00 0.00 0.00 68 1014.7
20260507034538 16 319 4.8 27.4 0.00 0.00 0.00 69 1014.9
20260507033037 16 132 6.4 20.9 0.00 0.00 0.00 70 1015.0
20260507031532 16 240 11.3 33.8 0.00 0.00 0.00 70 1015.2
20260507030026 16 167 3.2 25.7 0.00 0.00 0.00 70 1015.4
20260507024525 16 256 11.3 25.7 0.00 0.00 0.00 69 1015.5